30.06.2024;16:00;13
30.06.2024;15:00;15
30.06.2024;14:00;16
30.06.2024;13:00;10
30.06.2024;12:00;10
30.06.2024;11:00;8
30.06.2024;10:00;9
30.06.2024;09:00;10
30.06.2024;08:00;11
30.06.2024;07:00;11
30.06.2024;06:00;9
30.06.2024;05:00;11
30.06.2024;04:00;17
30.06.2024;03:00;33
30.06.2024;02:00;28
30.06.2024;01:00;31
30.06.2024;00:00;19
29.06.2024;23:00;17
29.06.2024;22:00;22
29.06.2024;21:00;27
29.06.2024;20:00;24
29.06.2024;19:00;25
29.06.2024;18:00;31
29.06.2024;17:00;25
29.06.2024;16:00;25
29.06.2024;15:00;21
29.06.2024;14:00;19
29.06.2024;13:00;19
29.06.2024;12:00;24
29.06.2024;11:00;20
29.06.2024;10:00;21
29.06.2024;09:00;19
29.06.2024;08:00;18
29.06.2024;07:00;24
29.06.2024;06:00;24
29.06.2024;05:00;24
29.06.2024;04:00;30
29.06.2024;03:00;40
29.06.2024;02:00;50
29.06.2024;01:00;57
29.06.2024;00:00;40
28.06.2024;23:00;39
28.06.2024;22:00;29
28.06.2024;21:00;30
28.06.2024;20:00;28
28.06.2024;19:00;26
28.06.2024;18:00;24
28.06.2024;17:00;28
